When you browse on this site, cookies collect data to enhance your experience and personalize the content and advertising you see.
Visit our Privacy Policy to learn more. By continuing to use the site, you agree to this use of cookies and data.
  • In Hungary
  • List of Countries
  • For 7 days
  • Water Temperature
  • Satellite Maps
  • Weather Map
  • News
  • Weather Widgets
  • user-avatar
    Login

    Hourly Weather Quatro Barras

    Today, 19 January, Saturday

    Time Temperature Precipitation Wind Pressure Humidity
    00:00 +20°C° 0.4 mm 0 mps 684 mmHg 92%
    01:00 +20°C° 0 mm 0 mps 683 mmHg 92%
    02:00 +20°C° 0 mm 0 mps 683 mmHg 92%
    03:00 +22°C° 0 mm 1 mps 683 mmHg 92%
    04:00 +22°C° 0 mm 1 mps 683 mmHg 92%
    05:00 +22°C° 0 mm 1 mps 682 mmHg 92%
    06:00 +21°C° 0 mm 1 mps 682 mmHg 92%
    07:00 +24°C° 0 mm 1 mps 683 mmHg 82%
    08:00 +26°C° 0 mm 1 mps 684 mmHg 73%
    09:00 +28°C° 0 mm 1 mps 684 mmHg 63%
    10:00 +30°C° 0.1 mm 1 mps 684 mmHg 57%
    11:00 +31°C° 0.1 mm 1 mps 685 mmHg 52%
    12:00 +33°C° 0.1 mm 1 mps 685 mmHg 46%
    13:00 +32°C° 0.2 mm 1 mps 684 mmHg 50%
    14:00 +32°C° 0.2 mm 1 mps 684 mmHg 54%
    15:00 +29°C° 0.2 mm 0 mps 683 mmHg 57%
    16:00 +29°C° 3.1 mm 1 mps 683 mmHg 67%
    17:00 +27°C° 3.1 mm 1 mps 683 mmHg 77%
    18:00 +25°C° 3.1 mm 1 mps 682 mmHg 87%
    19:00 +24°C° 5.5 mm 1 mps 683 mmHg 90%
    20:00 +23°C° 5.5 mm 2 mps 683 mmHg 92%
    21:00 +23°C° 5.5 mm 2 mps 684 mmHg 94%
    22:00 +21°C° 2.9 mm 2 mps 684 mmHg 95%
    23:00 +21°C° 2.9 mm 2 mps 684 mmHg 96%

    Tomorrow, 20 January, Sunday

    Time Temperature Precipitation Wind Pressure Humidity
    00:00 +21°C° 2.9 mm 2 mps 684 mmHg 96%
    01:00 +22°C° 0.1 mm 1 mps 684 mmHg 97%
    02:00 +21°C° 0.1 mm 1 mps 684 mmHg 97%
    03:00 +21°C° 0.1 mm 1 mps 683 mmHg 97%
    04:00 +21°C° 0 mm 1 mps 683 mmHg 97%
    05:00 +21°C° 0 mm 1 mps 683 mmHg 97%
    06:00 +20°C° 0 mm 1 mps 684 mmHg 97%
    07:00 +21°C° 0 mm 1 mps 684 mmHg 95%
    08:00 +21°C° 0 mm 1 mps 684 mmHg 93%
    09:00 +22°C° 0 mm 1 mps 685 mmHg 91%
    10:00 +23°C° 0.1 mm 1 mps 685 mmHg 87%
    11:00 +24°C° 0.1 mm 1 mps 685 mmHg 84%
    12:00 +24°C° 0.1 mm 1 mps 685 mmHg 80%
    13:00 +25°C° 0.2 mm 1 mps 685 mmHg 80%
    14:00 +25°C° 0.2 mm 1 mps 684 mmHg 80%
    15:00 +26°C° 0.2 mm 1 mps 684 mmHg 80%
    16:00 +25°C° 0.4 mm 1 mps 684 mmHg 83%
    17:00 +24°C° 0.4 mm 1 mps 684 mmHg 87%
    18:00 +24°C° 0.4 mm 1 mps 683 mmHg 90%
    19:00 +23°C° 0.6 mm 1 mps 684 mmHg 92%
    20:00 +22°C° 0.6 mm 1 mps 684 mmHg 95%
    21:00 +22°C° 0.6 mm 1 mps 684 mmHg 97%
    22:00 +22°C° 0 mm 1 mps 685 mmHg 97%
    23:00 +22°C° 0 mm 1 mps 685 mmHg 97%

    Day after tomorrow, 21 January, Monday

    Time Temperature Precipitation Wind Pressure Humidity
    00:00 +22°C° 0 mm 1 mps 685 mmHg 97%
    01:00 +21°C° 0 mm 1 mps 684 mmHg 97%
    02:00 +21°C° 0 mm 1 mps 684 mmHg 97%
    03:00 +21°C° 0 mm 1 mps 683 mmHg 98%
    04:00 +21°C° 0 mm 1 mps 683 mmHg 97%
    05:00 +21°C° 0 mm 1 mps 684 mmHg 97%
    06:00 +21°C° 0 mm 1 mps 684 mmHg 97%
    07:00 +23°C° 0 mm 1 mps 684 mmHg 88%
    08:00 +25°C° 0 mm 1 mps 685 mmHg 80%
    09:00 +27°C° 0 mm 2 mps 686 mmHg 71%
    10:00 +28°C° 0.6 mm 1 mps 686 mmHg 71%
    11:00 +29°C° 0.6 mm 1 mps 686 mmHg 71%
    12:00 +30°C° 0.6 mm 1 mps 686 mmHg 71%
    13:00 +30°C° 2.2 mm 1 mps 685 mmHg 73%
    14:00 +29°C° 2.2 mm 1 mps 684 mmHg 75%
    15:00 +29°C° 2.2 mm 1 mps 684 mmHg 78%
    16:00 +28°C° 1.4 mm 1 mps 684 mmHg 80%
    17:00 +28°C° 1.4 mm 1 mps 684 mmHg 82%
    18:00 +27°C° 1.4 mm 1 mps 684 mmHg 84%
    19:00 +26°C° 0.3 mm 1 mps 684 mmHg 86%
    20:00 +25°C° 0.3 mm 1 mps 684 mmHg 89%
    21:00 +23°C° 0.3 mm 1 mps 685 mmHg 92%
    22:00 +23°C° 0.1 mm 1 mps 685 mmHg 92%
    23:00 +23°C° 0.1 mm 1 mps 685 mmHg 92%

    22 January, Tuesday

    Time Temperature Precipitation Wind Pressure Humidity
    00:00 +22°C° 0.1 mm 1 mps 685 mmHg 92%
    01:00 +22°C° 0 mm 1 mps 684 mmHg 93%
    02:00 +22°C° 0 mm 1 mps 684 mmHg 93%
    03:00 +22°C° 0 mm 1 mps 683 mmHg 94%
    04:00 +22°C° 0 mm 1 mps 684 mmHg 94%
    05:00 +22°C° 0 mm 1 mps 684 mmHg 95%
    06:00 +22°C° 0 mm 1 mps 684 mmHg 95%
    07:00 +22°C° 0 mm 0 mps 685 mmHg 84%
    08:00 +25°C° 0 mm 0 mps 686 mmHg 73%
    09:00 +27°C° 0 mm 0 mps 687 mmHg 63%
    10:00 +29°C° 0.1 mm 0 mps 687 mmHg 57%
    11:00 +30°C° 0.1 mm 0 mps 686 mmHg 52%
    12:00 +32°C° 0.1 mm 0 mps 686 mmHg 46%
    13:00 +33°C° 0.8 mm 1 mps 686 mmHg 53%
    14:00 +31°C° 0.8 mm 1 mps 685 mmHg 61%
    15:00 +30°C° 0.8 mm 1 mps 684 mmHg 68%
    16:00 +29°C° 2.9 mm 1 mps 684 mmHg 75%
    17:00 +27°C° 2.9 mm 1 mps 684 mmHg 82%
    18:00 +25°C° 2.9 mm 1 mps 684 mmHg 89%
    19:00 +25°C° 0.3 mm 1 mps 684 mmHg 91%
    20:00 +24°C° 0.3 mm 1 mps 685 mmHg 92%
    21:00 +24°C° 0.3 mm 1 mps 685 mmHg 93%
    22:00 +24°C° 0.1 mm 1 mps 685 mmHg 94%
    23:00 +22°C° 0.1 mm 0 mps 685 mmHg 94%

    23 January, Wednesday

    Time Temperature Precipitation Wind Pressure Humidity
    00:00 +21°C° 0.1 mm 0 mps 685 mmHg 94%
    01:00 +21°C° 0 mm 0 mps 685 mmHg 94%
    02:00 +21°C° 0 mm 0 mps 684 mmHg 95%
    03:00 +23°C° 0 mm 1 mps 684 mmHg 95%
    04:00 +20°C° 0 mm 0 mps 684 mmHg 95%
    05:00 +20°C° 0 mm 0 mps 684 mmHg 95%
    06:00 +20°C° 0 mm 0 mps 684 mmHg 94%
    07:00 +23°C° 0 mm 0 mps 685 mmHg 84%
    08:00 +25°C° 0 mm 0 mps 686 mmHg 73%
    09:00 +28°C° 0 mm 0 mps 687 mmHg 62%
    10:00 +29°C° 0.6 mm 0 mps 686 mmHg 62%
    11:00 +29°C° 0.6 mm 0 mps 686 mmHg 62%
    12:00 +32°C° 0.6 mm 1 mps 686 mmHg 62%
    13:00 +32°C° 2.5 mm 1 mps 685 mmHg 63%
    14:00 +32°C° 2.5 mm 1 mps 685 mmHg 63%
    15:00 +31°C° 2.5 mm 1 mps 684 mmHg 64%
    16:00 +30°C° 3.1 mm 1 mps 684 mmHg 71%
    17:00 +28°C° 3.1 mm 1 mps 684 mmHg 78%
    18:00 +27°C° 3.1 mm 1 mps 683 mmHg 85%
    19:00 +26°C° 2.4 mm 1 mps 684 mmHg 87%
    20:00 +25°C° 2.4 mm 1 mps 684 mmHg 88%
    21:00 +24°C° 2.4 mm 1 mps 685 mmHg 90%
    22:00 +24°C° 0 mm 1 mps 684 mmHg 90%
    23:00 +23°C° 0 mm 1 mps 684 mmHg 90%

    24 January, Thursday

    Time Temperature Precipitation Wind Pressure Humidity
    00:00 +21°C° 0 mm 0 mps 684 mmHg 91%
    01:00 +21°C° 0 mm 0 mps 684 mmHg 91%
    02:00 +21°C° 0 mm 0 mps 683 mmHg 91%
    03:00 +21°C° 0 mm 0 mps 683 mmHg 92%
    04:00 +21°C° 0 mm 0 mps 683 mmHg 91%
    05:00 +20°C° 0 mm 0 mps 683 mmHg 91%
    06:00 +20°C° 0 mm 0 mps 684 mmHg 91%
    07:00 +23°C° 0 mm 0 mps 684 mmHg 81%
    08:00 +27°C° 0 mm 1 mps 685 mmHg 71%
    09:00 +29°C° 0 mm 1 mps 686 mmHg 61%
    10:00 +29°C° 1.5 mm 1 mps 686 mmHg 64%
    11:00 +30°C° 1.5 mm 1 mps 685 mmHg 66%
    12:00 +30°C° 1.5 mm 2 mps 685 mmHg 69%
    13:00 +29°C° 1.6 mm 2 mps 685 mmHg 72%
    14:00 +29°C° 1.6 mm 2 mps 684 mmHg 76%
    15:00 +28°C° 1.6 mm 2 mps 684 mmHg 79%
    16:00 +27°C° 2.1 mm 2 mps 684 mmHg 81%
    17:00 +26°C° 2.1 mm 2 mps 684 mmHg 83%
    18:00 +25°C° 2.1 mm 2 mps 684 mmHg 84%
    19:00 +24°C° 0.1 mm 2 mps 684 mmHg 88%
    20:00 +23°C° 0.1 mm 2 mps 685 mmHg 92%
    21:00 +21°C° 0.1 mm 2 mps 685 mmHg 96%
    22:00 +22°C° 0 mm 1 mps 685 mmHg 96%
    23:00 +21°C° 0 mm 1 mps 685 mmHg 96%
    Show more